History for IHAMILTO1123

Hill Crescent, Pembroke, BM, Hamilton, — Current Conditions
Daily Summary for November 12, 2018
  Current: High: Low: Average:
Temperature: 70.3°F 75.0°F 66.9°F 70.9°F
Dew Point: 58.0°F 67.0°F 58.0°F 62.3°F
Humidity: 66% 91% 65% 77%
Wind Speed: 8.0mph 17.0mph - 8.3mph
Wind Gust: - 21.0mph - -
Wind: SW - - SW
Pressure: 30.57in 30.57in 30.34in -
Precipitation: 0.56in      
Statistics for the rest of the month
    High: Low: Average:
Temperature:   83.2°F 64.1°F 75.7°F
Dew Point:   72.0°F 49.0°F 64.5°F
Humidity:   93.0% 37.0% 72.8%
Wind Speed:   17.0mph from the SW - 5.0mph
Wind Gust:   21.0mph from the SW - -
Wind:   - - SW
Pressure:   30.57in 30.20in -
Precipitation:   1.25in    
IHAMILTO1123 Weather Graph
Tabular Data for November 12, 2018
Time Temp. Dew Point Pressure Wind Gust Humidity Rainfall
00:04 70.5°F 66.0°F 30.35in - 88% 0.00in
00:09 70.5°F 66.0°F 30.34in - 88% 0.01in
00:14 70.5°F 67.0°F 30.34in - 88% 0.02in
00:19 70.5°F 67.0°F 30.34in - 88% 0.03in
00:23 70.5°F 67.0°F 30.34in - 88% 0.03in
00:29 70.3°F 67.0°F 30.35in - 90% 0.04in
00:39 70.0°F 66.0°F 30.34in - 90% 0.05in
00:44 69.8°F 66.0°F 30.35in - 90% 0.05in
00:49 69.8°F 66.0°F 30.35in - 90% 0.05in
00:52 69.8°F 66.0°F 30.35in - 90% 0.05in
00:59 69.8°F 66.0°F 30.35in - 90% 0.05in
01:04 69.8°F 66.0°F 30.35in - 90% 0.01in
01:07 69.8°F 66.0°F 30.35in - 90% 0.01in
01:14 69.3°F 66.0°F 30.35in - 90% 0.09in
01:18 69.3°F 66.0°F 30.35in - 90% 0.19in
01:24 68.9°F 65.0°F 30.35in - 90% 0.20in
01:29 68.6°F 65.0°F 30.35in - 90% 0.21in
01:34 69.0°F 66.0°F 30.35in - 90% 0.22in
01:39 69.3°F 66.0°F 30.35in - 90% 0.22in
01:44 69.4°F 66.0°F 30.35in - 90% 0.23in
01:48 69.4°F 66.0°F 30.35in - 90% 0.23in
01:59 69.4°F 66.0°F 30.36in - 90% 0.24in
02:04 69.4°F 66.0°F 30.35in - 90% 0.01in
02:08 69.4°F 66.0°F 30.36in - 90% 0.03in
02:13 69.4°F 66.0°F 30.36in - 90% 0.12in
02:19 69.4°F 66.0°F 30.35in - 90% 0.16in
02:20 69.4°F 66.0°F 30.35in - 90% 0.17in
02:28 69.0°F 66.0°F 30.35in - 90% 0.24in
02:34 68.9°F 65.0°F 30.35in - 90% 0.25in
02:39 69.0°F 66.0°F 30.35in - 90% 0.26in
02:44 69.3°F 66.0°F 30.36in - 91% 0.26in
02:48 68.9°F 66.0°F 30.36in - 91% 0.26in
02:52 68.9°F 66.0°F 30.35in - 91% 0.26in
02:58 68.9°F 66.0°F 30.36in - 91% 0.26in
03:04 68.9°F 66.0°F 30.35in - 91% 0.00in
03:09 68.6°F 65.0°F 30.35in - 91% 0.00in
03:12 68.6°F 65.0°F 30.35in - 91% 0.00in
03:17 68.9°F 66.0°F 30.36in - 91% 0.00in
03:23 68.9°F 66.0°F 30.35in - 91% 0.00in
03:29 68.9°F 66.0°F 30.36in - 91% 0.00in
03:34 69.0°F 66.0°F 30.36in - 90% 0.00in
03:35 69.0°F 66.0°F 30.36in - 90% 0.00in
03:43 69.3°F 66.0°F 30.36in - 90% 0.00in
03:48 69.3°F 65.0°F 30.36in - 88% 0.00in
03:54 69.4°F 65.0°F 30.36in - 88% 0.00in
03:57 69.6°F 65.0°F 30.36in - 88% 0.00in
04:02 69.6°F 65.0°F 30.36in - 86% 0.00in
04:05 69.8°F 65.0°F 30.36in - 86% 0.00in
04:14 69.8°F 65.0°F 30.37in - 86% 0.00in
04:17 69.8°F 65.0°F 30.36in - 86% 0.00in
04:28 69.4°F 65.0°F 30.37in 18.0mph 86% 0.00in
04:37 69.0°F 65.0°F 30.37in - 86% 0.00in
04:48 68.4°F 65.0°F 30.38in - 88% 0.00in
04:53 68.4°F 65.0°F 30.38in - 88% 0.00in
04:59 68.0°F 64.0°F 30.38in - 88% 0.01in
05:06 68.0°F 64.0°F 30.38in - 90% 0.00in
05:20 67.6°F 64.0°F 30.39in - 90% 0.00in
05:34 67.5°F 64.0°F 30.40in - 90% 0.00in
05:36 67.5°F 64.0°F 30.41in - 90% 0.00in
05:57 67.3°F 64.0°F 30.41in - 90% 0.00in
06:02 67.5°F 64.0°F 30.41in - 88% 0.00in
06:07 67.5°F 64.0°F 30.41in - 88% 0.00in
06:12 67.3°F 63.0°F 30.41in - 88% 0.00in
06:18 67.3°F 63.0°F 30.42in - 88% 0.00in
06:21 67.5°F 64.0°F 30.41in - 88% 0.00in
06:29 67.3°F 63.0°F 30.42in - 88% 0.00in
06:34 67.5°F 63.0°F 30.42in - 86% 0.00in
06:38 67.6°F 63.0°F 30.42in - 86% 0.00in
06:48 67.5°F 63.0°F 30.43in - 86% 0.00in
06:52 67.5°F 63.0°F 30.43in - 86% 0.00in
06:59 66.9°F 62.0°F 30.44in - 86% 0.00in
07:12 67.3°F 63.0°F 30.44in - 86% 0.00in
07:22 67.5°F 63.0°F 30.44in - 86% 0.00in
07:31 67.5°F 62.0°F 30.45in - 85% 0.00in
07:44 67.6°F 62.0°F 30.46in - 83% 0.00in
07:48 67.8°F 62.0°F 30.46in - 83% 0.00in
07:51 67.8°F 62.0°F 30.45in - 83% 0.00in
08:02 68.4°F 62.0°F 30.46in - 81% 0.00in
08:06 68.4°F 62.0°F 30.46in - 81% 0.00in
08:18 69.0°F 62.0°F 30.47in - 79% 0.00in
08:22 69.4°F 63.0°F 30.47in - 81% 0.00in
08:34 69.8°F 64.0°F 30.46in - 81% 0.00in
08:36 70.0°F 64.0°F 30.46in - 81% 0.00in
08:47 70.6°F 63.0°F 30.47in - 79% 0.00in
08:51 69.8°F 63.0°F 30.48in - 81% 0.00in
08:56 68.6°F 63.0°F 30.48in - 83% 0.00in
09:04 68.4°F 63.0°F 30.48in - 83% 0.00in
09:19 68.0°F 63.0°F 30.49in - 85% 0.00in
09:21 68.1°F 63.0°F 30.49in - 83% 0.00in
09:27 68.9°F 63.0°F 30.49in - 83% 0.00in
09:39 69.4°F 63.0°F 30.49in - 81% 0.00in
09:48 69.8°F 62.0°F 30.49in - 78% 0.00in
09:56 69.8°F 62.0°F 30.50in - 79% 0.00in
10:08 71.1°F 63.0°F 30.49in - 78% 0.00in
10:13 73.8°F 64.0°F 30.49in - 73% 0.00in
10:24 73.0°F 63.0°F 30.49in - 71% 0.00in
10:25 72.8°F 63.0°F 30.49in - 71% 0.00in
10:34 73.0°F 63.0°F 30.49in - 70% 0.00in
10:42 73.8°F 62.0°F 30.49in - 69% 0.00in
10:57 74.6°F 62.0°F 30.49in - 65% 0.00in
11:03 74.8°F 62.0°F 30.49in - 65% 0.00in
11:06 74.8°F 62.0°F 30.49in - 65% 0.00in
11:19 72.3°F 63.0°F 30.49in - 74% 0.00in
11:23 72.1°F 63.0°F 30.49in - 74% 0.00in
11:39 71.1°F 62.0°F 30.49in - 75% 0.00in
11:43 71.4°F 62.0°F 30.49in - 74% 0.00in
11:58 71.9°F 63.0°F 30.49in - 74% 0.00in
12:21 71.1°F 62.0°F 30.48in - 74% 0.00in
12:32 71.8°F 62.0°F 30.48in - 71% 0.00in
12:35 71.5°F 62.0°F 30.48in - 73% 0.00in
12:49 71.5°F 62.0°F 30.47in - 74% 0.00in
12:50 71.5°F 62.0°F 30.47in - 74% 0.00in
12:58 71.8°F 62.0°F 30.47in - 73% 0.00in
13:06 71.4°F 61.0°F 30.47in - 71% 0.00in
13:18 71.5°F 62.0°F 30.46in - 73% 0.00in
13:28 71.8°F 62.0°F 30.46in - 71% 0.00in
13:38 72.1°F 62.0°F 30.46in - 70% 0.00in
13:44 72.1°F 62.0°F 30.46in - 70% 0.00in
13:45 72.1°F 62.0°F 30.46in - 70% 0.00in
13:50 72.1°F 62.0°F 30.46in - 71% 0.00in
13:57 71.0°F 62.0°F 30.46in - 74% 0.00in
14:00 71.0°F 62.0°F 30.46in - 75% 0.00in
14:14 71.4°F 62.0°F 30.46in - 74% 0.00in
14:19 71.5°F 62.0°F 30.46in - 71% 0.00in
14:22 71.8°F 62.0°F 30.46in - 71% 0.00in
14:31 71.9°F 62.0°F 30.46in - 70% 0.00in
14:38 71.9°F 62.0°F 30.47in - 70% 0.00in
14:41 72.1°F 62.0°F 30.47in - 70% 0.00in
14:46 72.5°F 61.0°F 30.47in - 69% 0.00in
14:52 72.6°F 62.0°F 30.47in - 70% 0.00in
15:09 73.4°F 62.0°F 30.47in - 68% 0.00in
15:11 73.9°F 62.0°F 30.47in - 68% 0.00in
15:19 73.1°F 62.0°F 30.47in - 68% 0.00in
15:23 73.0°F 62.0°F 30.47in - 69% 0.00in
15:29 72.3°F 61.0°F 30.47in - 70% 0.00in
15:34 72.3°F 61.0°F 30.47in - 69% 0.00in
15:39 72.3°F 61.0°F 30.47in - 69% 0.00in
15:43 72.1°F 61.0°F 30.47in - 69% 0.00in
15:46 72.1°F 61.0°F 30.47in - 70% 0.00in
15:54 71.9°F 61.0°F 30.47in - 70% 0.00in
15:59 71.9°F 61.0°F 30.48in - 70% 0.00in
16:04 71.9°F 61.0°F 30.48in - 69% 0.00in
16:07 71.9°F 61.0°F 30.48in - 69% 0.00in
16:14 71.9°F 61.0°F 30.48in - 69% 0.00in
16:19 71.8°F 61.0°F 30.48in - 69% 0.00in
16:24 71.8°F 61.0°F 30.48in - 69% 0.00in
16:29 71.8°F 61.0°F 30.48in - 69% 0.00in
16:34 71.5°F 61.0°F 30.48in - 70% 0.00in
16:35 71.5°F 61.0°F 30.48in - 70% 0.00in
16:43 71.1°F 60.0°F 30.48in - 70% 0.00in
16:47 71.0°F 61.0°F 30.48in - 70% 0.00in
16:54 71.0°F 61.0°F 30.49in - 70% 0.00in
16:59 70.9°F 61.0°F 30.49in - 70% 0.00in
17:04 70.9°F 61.0°F 30.49in - 70% 0.00in
17:09 70.9°F 61.0°F 30.49in - 70% 0.00in
17:13 70.9°F 61.0°F 30.49in - 70% 0.00in
17:21 70.6°F 60.0°F 30.49in - 70% 0.00in
17:29 70.6°F 60.0°F 30.49in - 70% 0.00in
17:33 70.6°F 60.0°F 30.49in - 70% 0.00in
17:39 70.6°F 60.0°F 30.49in - 70% 0.00in
17:44 70.6°F 60.0°F 30.50in - 70% 0.00in
17:48 70.6°F 60.0°F 30.49in - 70% 0.00in
17:53 70.6°F 60.0°F 30.49in - 70% 0.00in
17:57 70.6°F 60.0°F 30.49in - 70% 0.00in
18:04 70.6°F 60.0°F 30.50in - 70% 0.00in
18:09 70.6°F 60.0°F 30.49in - 70% 0.00in
18:14 70.6°F 60.0°F 30.49in - 70% 0.00in
18:19 70.6°F 60.0°F 30.49in - 69% 0.00in
18:24 70.6°F 60.0°F 30.50in - 69% 0.00in
18:29 70.6°F 60.0°F 30.49in - 70% 0.00in
18:33 70.6°F 60.0°F 30.49in - 70% 0.00in
18:38 70.5°F 60.0°F 30.50in - 70% 0.00in
18:44 70.5°F 60.0°F 30.50in - 70% 0.00in
18:47 70.5°F 60.0°F 30.50in - 70% 0.00in
18:53 70.5°F 60.0°F 30.51in - 70% 0.00in
18:58 70.3°F 60.0°F 30.51in - 70% 0.00in
19:04 70.3°F 60.0°F 30.50in - 70% 0.00in
19:08 70.3°F 60.0°F 30.51in - 70% 0.00in
19:13 70.3°F 60.0°F 30.51in - 70% 0.00in
19:19 70.3°F 60.0°F 30.51in - 70% 0.00in
19:21 70.1°F 60.0°F 30.51in - 70% 0.00in
19:29 70.1°F 59.0°F 30.52in - 70% 0.00in
19:32 70.1°F 59.0°F 30.51in - 70% 0.00in
19:39 70.1°F 59.0°F 30.52in - 70% 0.00in
19:44 70.1°F 59.0°F 30.52in - 69% 0.00in
19:49 70.3°F 60.0°F 30.52in - 70% 0.00in
19:54 70.3°F 60.0°F 30.52in - 70% 0.00in
19:59 70.3°F 60.0°F 30.52in - 70% 0.00in
20:04 70.3°F 60.0°F 30.52in - 70% 0.00in
20:09 70.3°F 60.0°F 30.52in - 70% 0.00in
20:14 70.3°F 60.0°F 30.52in - 70% 0.00in
20:18 70.3°F 60.0°F 30.52in - 70% 0.00in
20:23 70.3°F 59.0°F 30.53in - 69% 0.00in
20:29 70.3°F 59.0°F 30.53in - 69% 0.00in
20:33 70.3°F 59.0°F 30.53in - 69% 0.00in
20:39 70.3°F 59.0°F 30.53in - 69% 0.00in
20:42 70.3°F 59.0°F 30.54in - 69% 0.00in
20:49 70.3°F 59.0°F 30.54in - 69% 0.00in
20:53 70.3°F 59.0°F 30.54in - 69% 0.00in
20:59 70.1°F 59.0°F 30.55in - 70% 0.00in
21:03 70.1°F 59.0°F 30.55in - 70% 0.00in
21:08 70.1°F 59.0°F 30.56in - 68% 0.00in
21:19 70.3°F 58.0°F 30.56in - 66% 0.00in
21:24 70.3°F 59.0°F 30.57in - 68% 0.00in
21:29 70.3°F 59.0°F 30.57in - 68% 0.00in
21:32 70.3°F 59.0°F 30.57in - 68% 0.00in
21:39 70.3°F 59.0°F 30.57in - 69% 0.00in
21:42 70.3°F 59.0°F 30.57in - 69% 0.00in
21:48 70.3°F 60.0°F 30.57in - 70% 0.00in
21:53 70.3°F 59.0°F 30.57in - 69% 0.00in
22:03 70.5°F 59.0°F 30.57in - 68% 0.00in
22:09 70.6°F 59.0°F 30.57in - 68% 0.00in
22:10 70.6°F 59.0°F 30.57in - 68% 0.00in
22:18 70.5°F 59.0°F 30.57in - 66% 0.00in
22:24 70.5°F 59.0°F 30.57in - 66% 0.00in
22:29 70.3°F 58.0°F 30.57in - 66% 0.00in
22:32 70.3°F 58.0°F 30.57in - 66% 0.00in
Comma Delimited File
Powered by Weather Underground, Inc.